West Memphis, AR

7:03 AM CST on December 06, 2019 (GMT -0600)
West Memphis Municipal

Weather History for KAWM - November, 2019

Change the Weather History Date:

Friday, November 22, 2019

  Actual Average Record
Temperature  
Mean Temperature 54 °F -  
Max Temperature 62 °F 58 °F 72 °F (1990)
Min Temperature 46 °F 39 °F 18 °F (1964)
Degree Days  
Heating Degree Days 11    
Growing Degree Days 4 (Base 50)    
Moisture  
Dew Point 49 °F    
Average Humidity 96    
Maximum Humidity 100    
Minimum Humidity 90    
Precipitation  
Precipitation 0.53 in - - ()
Sea Level Pressure  
Sea Level Pressure 29.98 in    
Wind  
Wind Speed 11 mph (NNE)    
Max Wind Speed 18 mph    
Max Gust Speed 24 mph    
Visibility 6 miles    
Events Rain , Thunderstorm    
Averages and records for this station are not official NWS values.
T = Trace of Precipitation, MM = Missing Value Source: NWS Daily Summary

Daily Weather History Graph

Daily Weather History Graph

Search for Another Location

Airport or City:

Astronomy

Nov. 22, 2019 Rise Set
Actual Time 6:42 AM CST 4:51 PM CST
Civil Twilight 6:14 AM CST 5:18 PM CST
Nautical Twilight 5:43 AM CST 5:49 PM CST
Astronomical Twilight 5:13 AM CST 6:20 PM CST
Moon 2:02 AM CST (11/22) 2:40 PM CST (11/22)
Length of Visible Light 11h 03m
Length of Day
10h 09m
Waning Crescent, 19% of the Moon is Illuminated
Nov 22
Waning Crescent
Nov 26
New
Dec 4
First Quarter
Dec 11
Full
Dec 18
Last Quarter

Hourly Weather History & Observations

Time (CST) Temp. Windchill Dew Point Humidity Pressure Visibility Wind Dir Wind Speed Gust Speed Precip Events Conditions
1:53 AM 62.1 °F - 59.0 °F 90% 29.94 in 10.0 mi SSW 10.4 mph - N/A   Overcast
3:34 AM 61.0 °F - 59.0 °F 93% 29.92 in 10.0 mi South 9.2 mph - N/A   Overcast
3:53 AM 61.0 °F - 59.0 °F 93% 29.92 in 10.0 mi South 11.5 mph - N/A   Overcast
4:15 AM 62.1 °F - 59.0 °F 90% 29.91 in 10.0 mi South 11.5 mph - N/A Thunderstorm Mostly Cloudy
4:27 AM 61.0 °F - 59.0 °F 93% 29.96 in 2.0 mi NNW 9.2 mph 17.3 mph 0.01 in Rain , Thunderstorm Heavy Rain
4:45 AM 60.1 °F - 60.1 °F 100% 29.95 in 1.5 mi North 4.6 mph - 0.06 in Rain Heavy Rain
4:53 AM 60.1 °F - 60.1 °F 100% 29.95 in 2.5 mi North 5.8 mph - 0.08 in Rain Rain
5:00 AM 57.9 °F - 57.9 °F 100% 29.96 in 2.5 mi North 15.0 mph 23.0 mph 0.02 in Rain Rain
5:11 AM 53.1 °F - 53.1 °F 100% 29.96 in 5.0 mi North 11.5 mph - 0.05 in Rain Light Rain
5:50 AM 53.6 °F - 51.8 °F 94% 29.98 in 10.0 mi North 15.0 mph 19.6 mph 0.18 in Rain Light Rain
5:53 AM 52.0 °F - 52.0 °F 100% 29.98 in 10.0 mi North 16.1 mph 24.2 mph 0.19 in Rain Light Rain
6:08 AM 52.0 °F - 51.1 °F 97% 30.00 in 7.0 mi North 11.5 mph 20.7 mph 0.04 in Rain Light Rain
7:53 AM 51.1 °F - 50.0 °F 96% 30.02 in 10.0 mi NNE 10.4 mph - 0.11 in Rain Light Rain
8:53 AM 48.9 °F - 46.9 °F 93% 30.06 in 10.0 mi North 18.4 mph 24.2 mph 0.01 in   Overcast
9:53 AM 46.9 °F - 46.0 °F 97% 30.07 in 10.0 mi NNE 15.0 mph 23.0 mph 0.00 in Rain Light Rain
10:53 AM 48.0 °F - 46.0 °F 93% 30.07 in 10.0 mi NNE 11.5 mph - 0.00 in   Overcast
11:53 AM 48.0 °F - 46.0 °F 93% 30.08 in 10.0 mi North 9.2 mph - 0.01 in   Overcast
12:00 PM 48.0 °F - 46.0 °F 93% 30.06 in 10.0 mi NNE 9.2 mph - N/A   Overcast
12:25 PM 48.0 °F - 46.9 °F 96% 30.03 in 8.0 mi ENE 17.3 mph - 0.01 in Rain Light Rain
12:35 PM 48.0 °F - 46.9 °F 96% 30.03 in 7.0 mi ENE 11.5 mph - 0.01 in Rain Light Rain
12:49 PM 48.2 °F - 46.4 °F 93% 30.02 in 8.0 mi East 9.2 mph - 0.02 in Rain Light Rain
12:53 PM 48.0 °F - 46.9 °F 96% 30.01 in 8.0 mi ESE 8.1 mph - 0.02 in Rain Light Rain
1:15 PM 48.9 °F - 48.0 °F 97% 29.94 in 6.0 mi ESE 16.1 mph - 0.01 in Rain Light Rain
1:53 PM 50.0 °F - 48.0 °F 93% 29.99 in 10.0 mi North 9.2 mph - 0.02 in   Overcast
2:53 PM 48.0 °F - 46.9 °F 96% 30.00 in 7.0 mi NNE 10.4 mph - 0.03 in Rain Light Rain
3:53 PM 48.0 °F - 46.9 °F 96% 30.01 in 7.0 mi North 6.9 mph - 0.02 in Rain Light Rain
4:53 PM 48.0 °F - 46.9 °F 96% 29.97 in 10.0 mi NE 9.2 mph - 0.02 in Rain Light Rain
5:15 PM 48.0 °F - 46.9 °F 96% 29.96 in 10.0 mi ENE 8.1 mph - 0.01 in   Overcast
5:35 PM 48.0 °F - 46.9 °F 96% 29.97 in 10.0 mi NE 9.2 mph - 0.01 in   Overcast
5:53 PM 48.0 °F - 46.9 °F 96% 29.97 in 10.0 mi NNE 6.9 mph - 0.02 in   Overcast
7:18 PM 46.9 °F - 46.0 °F 97% 29.98 in 2.5 mi NNE 9.2 mph - N/A   Overcast
7:53 PM 46.9 °F - 46.0 °F 97% 29.98 in 3.0 mi NNE 10.4 mph - N/A   Overcast
8:17 PM 46.9 °F - 46.0 °F 97% 29.98 in 3.0 mi North 10.4 mph - N/A   Overcast
8:35 PM 46.0 °F 41.4 °F 46.0 °F 100% 29.97 in 2.5 mi NNE 9.2 mph - 0.00 in Rain Light Rain
8:53 PM 46.0 °F 41.0 °F 46.0 °F 100% 29.96 in 3.0 mi NNE 10.4 mph - 0.00 in Rain Light Rain
9:18 PM 46.0 °F 41.0 °F 46.0 °F 100% 29.96 in 3.0 mi NNE 10.4 mph - 0.00 in   Overcast
9:53 PM 46.0 °F 41.0 °F 46.0 °F 100% 29.96 in 3.0 mi NNE 10.4 mph - 0.00 in   Overcast
10:28 PM 46.0 °F 41.4 °F 46.0 °F 100% 29.94 in 1.8 mi NNE 9.2 mph - N/A   Overcast
10:40 PM 46.0 °F 41.4 °F 46.0 °F 100% 29.94 in 2.0 mi NNE 9.2 mph - N/A   Overcast
10:53 PM 46.0 °F 42.5 °F 46.0 °F 100% 29.94 in 2.5 mi NE 6.9 mph - N/A   Overcast
11:27 PM 46.0 °F 42.5 °F 46.0 °F 100% 29.92 in 3.0 mi North 6.9 mph - N/A   Overcast
11:53 PM 46.0 °F 43.1 °F 46.0 °F 100% 29.91 in 3.0 mi North 5.8 mph - 0.00 in Rain Light Rain